Location: Unspecified
(48.2082°N, 0.0000°E)
Time: 13:58:02
(UTC+00:00)

Tiros 1 despin weight - Pass Details

Date: 22 June 2019
Orbit: 594 x 642 km, 48.2° (Epoch: 24 August)

Event Time Altitude Azimuth Distance (km) Brightness Sun altitude
Rises 22:19:07 0° 207° (SSW) 2,848 - -14.7°
Reaches altitude 10° 22:21:50 10° 192° (SSW) 1,940 - -14.9°
Maximum altitude 22:25:12 21° 143° (SE) 1,350 - -15.1°
Exits shadow 22:26:46 18° 114° (ESE) 1,499 ? -15.2°
Drops below altitude 10° 22:28:32 10° 93° (E) 1,933 ? -15.4°
Sets 22:31:14 0° 78° (ENE) 2,834 ? -15.5°
